Kolkata, India

11:59 PM IST on August 18, 2017 (GMT +0530)
Netaji Subhash Chandra Bose International

Weather History for VECC - September, 2013

Change the Weather History Date:

Friday, September 27, 2013

  Actual Average Record
Temperature  
Mean Temperature 88 °F -  
Max Temperature 97 °F 89 °F 98 °F (2014)
Min Temperature 78 °F 78 °F 71 °F (1996)
Cooling Degree Days 22    
Growing Degree Days 38 (Base 50)    
Moisture  
Dew Point 77 °F    
Average Humidity 79    
Maximum Humidity 94    
Minimum Humidity 47    
Precipitation  
Precipitation 0.39 in - - ()
Sea Level Pressure  
Sea Level Pressure 29.67 in    
Wind  
Wind Speed 2 mph ()    
Max Wind Speed 9 mph    
Max Gust Speed -    
Visibility 1.5 miles    
Events Rain , Thunderstorm    
Averages and records for this station are not official NWS values.
T = Trace of Precipitation, MM = Missing Value Source: Averaged Metar Reports

Daily Weather History Graph

Daily Weather History Graph

Search for Another Location

Airport or City:

Trip Planner

Search our weather history database for the weather conditions in past years. The results will help you decide how hot, cold, wet, or windy it might be!

Date:

Astronomy

Sep. 27, 2013 Rise Set
Actual Time 5:26 AM IST 5:27 PM IST
Civil Twilight 5:04 AM IST 5:50 PM IST
Nautical Twilight 4:37 AM IST 6:16 PM IST
Astronomical Twilight 4:11 AM IST 6:42 PM IST
Moon 11:24 PM IST (9/27) 12:07 PM IST (9/27)
Length of Visible Light 12h 46m
Length of Day
12h 01m
Waning Gibbous, 49% of the Moon is Illuminated
Sep 27
Waning Gibbous
Oct 5
New
Oct 12
First Quarter
Oct 19
Full
Oct 27
Last Quarter

Hourly Weather History & Observations

Time (IST) Temp. Heat Index Dew Point Humidity Pressure Visibility Wind Dir Wind Speed Gust Speed Precip Events Conditions
12:20 AM 82.4 °F 94.0 °F 80.6 °F 94% 29.68 in 1.1 mi Calm Calm - N/A   Scattered Clouds
12:50 AM 82.4 °F 94.0 °F 80.6 °F 94% 29.68 in 1.1 mi Calm Calm - N/A   Scattered Clouds
1:20 AM 82.4 °F 94.0 °F 80.6 °F 94% 29.68 in 1.1 mi Calm Calm - N/A   Scattered Clouds
1:50 AM 82.4 °F 94.0 °F 80.6 °F 94% 29.68 in 1.1 mi Calm Calm - N/A   Scattered Clouds
2:20 AM 82.4 °F 94.0 °F 80.6 °F 94% 29.68 in 1.1 mi Calm Calm - N/A   Scattered Clouds
2:50 AM 82.4 °F 94.0 °F 80.6 °F 94% 29.68 in 1.1 mi NW 3.5 mph - N/A   Scattered Clouds
3:20 AM 82.4 °F 94.0 °F 80.6 °F 94% 29.65 in 1.2 mi NNW 3.5 mph - N/A   Scattered Clouds
3:50 AM 82.4 °F 92.4 °F 78.8 °F 89% 29.68 in 1.2 mi Calm Calm - N/A   Scattered Clouds
4:20 AM 82.4 °F 90.9 °F 77.0 °F 84% 29.68 in 1.2 mi Calm Calm - N/A   Scattered Clouds
4:50 AM 80.6 °F 86.2 °F 75.2 °F 84% 29.68 in 1.2 mi Calm Calm - N/A   Scattered Clouds
5:20 AM 80.6 °F 86.2 °F 75.2 °F 84% 29.68 in 1.4 mi Calm Calm - N/A   Partly Cloudy
5:30 AM 80 °F - 76 °F 86% 29.70 in 1 mi Calm Calm - -   Haze
5:50 AM 80.6 °F 86.2 °F 75.2 °F 84% 29.68 in 1.4 mi Calm Calm - N/A   Partly Cloudy
6:20 AM 80.6 °F 86.2 °F 75.2 °F 84% 29.68 in 1.4 mi Calm Calm - N/A   Partly Cloudy
6:50 AM 82.4 °F 89.5 °F 75.2 °F 79% 29.71 in 1.4 mi NNW 4.6 mph - N/A   Partly Cloudy
7:20 AM 84.2 °F 92.3 °F 75.2 °F 74% 29.71 in 1.6 mi NNW 3.5 mph - N/A   Haze
7:50 AM 84.2 °F 96.1 °F 78.8 °F 84% 29.71 in 1.7 mi NNE 4.6 mph - N/A   Haze
8:20 AM 86.0 °F 99.3 °F 78.8 °F 79% 29.74 in - North 4.6 mph - N/A   Haze
8:30 AM 88 °F - 77 °F 62% 29.74 in 1 mi North 2.3 mph - -   Haze
8:50 AM 87.8 °F 102.5 °F 78.8 °F 75% 29.74 in 2.2 mi North 4.6 mph - N/A   Haze
9:20 AM 87.8 °F 102.5 °F 78.8 °F 75% 29.74 in 2.2 mi NNE 3.5 mph - N/A   Haze
9:50 AM 87.8 °F 102.5 °F 78.8 °F 75% 29.74 in 2.2 mi NNE 4.6 mph - N/A   Haze
10:20 AM 89.6 °F 104.7 °F 78.8 °F 70% 29.74 in 2.2 mi North 3.5 mph - N/A   Haze
10:50 AM 89.6 °F 104.7 °F 78.8 °F 70% 29.71 in 2.2 mi North 4.6 mph - N/A   Haze
11:20 AM 89.6 °F 104.7 °F 78.8 °F 70% 29.71 in 2.2 mi ESE 4.6 mph - N/A   Haze
11:30 AM 93 °F - 76 °F 50% 29.71 in 1 mi South 2.3 mph - -   Haze
11:50 AM 91.4 °F 105.1 °F 77.0 °F 63% 29.68 in 2.2 mi SSE 3.5 mph - N/A   Haze
12:20 PM 93.2 °F 110.2 °F 78.8 °F 63% 29.65 in - SSE 5.8 mph - N/A   Haze
12:50 PM 93.2 °F 110.2 °F 78.8 °F 63% 29.65 in - South 3.5 mph - N/A   Haze
1:20 PM 93.2 °F 107.2 °F 77.0 °F 59% 29.62 in - SSE 6.9 mph - N/A   Haze
1:50 PM 93.2 °F 107.2 °F 77.0 °F 59% 29.62 in 2.2 mi ESE 6.9 mph - N/A   Haze
2:20 PM 95.0 °F 109.7 °F 77.0 °F 56% 29.59 in 2.2 mi ESE 6.9 mph - N/A   Haze
2:30 PM 95 °F - 77 °F 47% 29.61 in 1 mi Calm Calm - -   Haze
2:50 PM 95.0 °F 109.7 °F 77.0 °F 56% 29.59 in 2.2 mi SSE 6.9 mph - N/A   Haze
3:20 PM 93.2 °F 107.2 °F 77.0 °F 59% 29.56 in 1.9 mi SE 4.6 mph - N/A   Haze
3:50 PM 91.4 °F 105.1 °F 77.0 °F 63% 29.56 in 1.9 mi East 6.9 mph - N/A   Haze
4:20 PM 82.4 °F 90.9 °F 77.0 °F 84% 29.59 in 1.6 mi NW 9.2 mph - N/A Thunderstorm Thunderstorm
4:50 PM 82.4 °F 90.9 °F 77.0 °F 84% 29.62 in 1.2 mi Calm Calm - N/A Rain , Thunderstorm Light Thunderstorms and Rain
5:20 PM 80.6 °F 86.2 °F 75.2 °F 84% 29.62 in 1.6 mi South 5.8 mph - N/A Rain , Thunderstorm Light Thunderstorms and Rain
5:30 PM 81 °F - 76 °F 81% 29.66 in 1 mi Calm Calm - - Rain , Thunderstorm Thunderstorms and Rain
5:50 PM 80.6 °F 86.2 °F 75.2 °F 84% 29.62 in 1.7 mi SSW 5.8 mph - N/A Rain , Thunderstorm Light Thunderstorms and Rain
6:20 PM 80.6 °F 86.2 °F 75.2 °F 84% 29.65 in 1.9 mi WSW 6.9 mph - N/A Thunderstorm Thunderstorm
7:20 PM 80.6 °F 86.2 °F 75.2 °F 84% 29.68 in 1.6 mi SW 5.8 mph - N/A Rain , Thunderstorm Light Thunderstorms and Rain
7:50 PM 78.8 °F - 75.2 °F 89% 29.68 in 1.6 mi West 5.8 mph - N/A Rain , Thunderstorm Light Thunderstorms and Rain
8:20 PM 78.8 °F - 75.2 °F 89% 29.68 in 1.6 mi WNW 3.5 mph - N/A Rain , Thunderstorm Light Thunderstorms and Rain
8:30 PM 80 °F - 77 °F 89% 29.69 in 1 mi East 2.3 mph - - Rain Light Rain
8:50 PM 78.8 °F - 75.2 °F 89% 29.71 in 1.6 mi WNW 3.5 mph - N/A Rain , Thunderstorm Light Thunderstorms and Rain
9:20 PM 78.8 °F - 75.2 °F 89% 29.71 in 1.6 mi NW 3.5 mph - N/A Rain , Thunderstorm Light Thunderstorms and Rain
9:50 PM 78.8 °F - 75.2 °F 89% 29.71 in 1.6 mi WNW 3.5 mph - N/A Rain , Thunderstorm Light Thunderstorms and Rain
10:20 PM 78.8 °F - 75.2 °F 89% 29.71 in 1.6 mi Calm Calm - N/A Rain Light Rain
10:50 PM 78.8 °F - 75.2 °F 89% 29.68 in 1.6 mi Calm Calm - N/A   Haze
11:20 PM 78.8 °F - 75.2 °F 89% 29.68 in 1.6 mi North 3.5 mph - N/A   Haze
11:30 PM 80 °F - 78 °F 93% 29.71 in 1 mi Calm Calm - -   Haze
11:50 PM 78.8 °F - 77.0 °F 94% 29.68 in 1.6 mi North 3.5 mph - N/A   Haze